Location: Newark
(3.0500°N, 36.0167°E)
Time: 20:18:08
(UTC+00:00)

A-11 Canister half - Pass Details

Date: 03 September 2019
Orbit: 1527 x 1682 km, 47.3° (Epoch: 22 October)

Event Time Altitude Azimuth Distance (km) Brightness Sun altitude
Rises 17:01:06 0° 283° (WNW) 4,903 13.2 -20.8°
Reaches altitude 10° 17:05:59 10° 264° (W) 3,894 12.2 -22.0°
Maximum altitude 17:11:33 16° 229° (SW) 3,382 11.2 -23.4°
Drops below altitude 10° 17:17:05 10° 193° (SSW) 3,831 11.1 -24.7°
Sets 17:21:54 0° 173° (S) 4,785 11.4 -25.9°
